Theta_e
349 349 350 350 350 349 347 346 345 344 345 346 346 345 347 349 347 344 342 341 343 344 342 341 340 342 345 344 344 345 345 347 350 350 349 348 347 348 348 348 348 350 351 350 350 350 350 350 349 346 341 338 336 334 334 334 334 334 334 333 333 334 336 337 336 336 336 337 336 336 336 334 333 333 331 329 329 329 329 330 331 332 332 333 334
350 350 350 351 351 350 347 346 346 346 348 349 348 347 347 349 347 344 344 342 343 344 342 341 340 341 343 344 343 342 342 345 350 351 350 348 348 347 348 347 347 349 350 350 351 352 352 351 350 348 347 343 339 337 335 333 333 333 334 334 333 332 332 333 333 333 334 337 338 337 337 336 335 335 334 332 330 329 329 329 330 331 331 332 333
349 350 351 351 350 349 346 346 346 347 349 350 348 348 348 349 347 346 346 344 344 344 342 340 340 340 341 342 342 341 340 341 346 350 351 349 348 347 348 348 348 348 350 350 349 351 352 352 351 349 349 348 345 343 340 336 333 333 335 333 333 333 332 331 331 330 331 334 337 339 338 337 337 337 336 335 333 332 331 331 332 333 333 334 335
349 349 351 352 351 348 345 345 346 347 349 348 348 347 347 347 347 347 346 344 344 343 341 340 340 340 341 341 341 341 340 338 341 347 349 349 348 347 347 348 349 348 350 350 347 347 349 351 352 349 349 350 349 347 344 341 336 334 335 334 333 333 333 333 333 332 331 331 333 336 336 336 336 337 337 337 336 335 334 334 335 337 338 338 339
350 350 351 352 350 347 346 347 347 347 347 347 347 346 346 346 346 345 344 344 343 341 338 339 340 340 340 341 341 341 341 338 339 343 346 347 346 345 345 347 349 348 349 350 349 347 347 349 351 350 350 352 351 350 349 346 341 336 334 333 333 334 334 334 334 334 334 333 331 332 332 332 334 335 336 336 336 336 336 336 338 339 339 340 341
351 351 352 351 349 348 348 348 348 348 347 347 347 347 347 346 345 345 344 344 341 338 338 339 339 339 339 340 340 340 341 341 342 343 344 344 345 345 345 346 348 349 349 350 351 351 350 350 350 350 350 351 351 351 351 349 346 341 335 333 333 334 335 335 335 335 336 336 334 333 332 331 331 333 334 335 336 336 337 337 338 338 339 340 340
351 352 352 350 349 349 350 349 349 349 349 349 349 348 347 346 346 345 344 342 339 337 338 339 339 338 338 338 338 338 339 339 340 342 341 341 341 343 345 345 347 349 349 349 349 351 351 351 350 350 350 350 351 351 352 350 349 347 342 336 334 334 335 337 337 338 337 338 337 336 335 334 333 333 333 334 335 335 335 337 337 338 338 339 339
351 352 351 349 349 349 349 350 350 349 350 349 349 349 347 345 345 344 341 340 338 338 338 339 339 338 337 337 338 338 339 339 338 338 338 338 338 339 341 344 345 346 347 348 349 349 349 349 349 349 349 349 350 349 350 351 350 350 346 342 339 337 336 337 338 339 340 340 339 338 338 337 336 335 333 333 334 334 334 335 337 337 336 337 338
352 352 349 347 347 346 348 350 349 349 349 349 349 349 347 344 343 343 342 341 341 341 340 340 341 340 339 338 339 340 339 339 340 339 339 339 338 338 339 340 341 342 342 344 345 346 347 348 345 346 348 349 349 348 348 350 350 350 349 347 345 342 340 339 338 338 340 341 341 341 340 339 337 336 335 334 333 333 333 333 335 335 335 335 334
354 352 348 346 345 346 348 350 349 348 349 350 350 349 347 346 345 345 344 344 343 343 342 342 342 342 341 340 339 339 338 339 339 340 340 340 340 339 339 340 340 340 340 341 342 345 348 347 344 345 347 349 349 349 349 350 350 350 350 349 348 346 344 342 340 339 339 340 342 342 341 340 339 338 338 337 335 333 332 332 332 332 332 333 331
352 349 346 346 347 347 348 349 349 349 350 350 350 350 348 347 347 346 346 346 345 345 344 343 343 343 341 340 338 337 337 338 339 339 339 339 339 339 340 341 342 342 342 342 342 344 346 346 345 347 347 348 349 349 350 350 349 349 350 350 350 349 347 346 345 343 341 340 341 342 342 341 340 339 339 339 337 335 332 331 331 331 331 331 330
348 346 346 348 347 346 347 347 348 348 349 350 349 348 346 345 345 346 345 345 345 345 345 345 344 343 341 339 338 336 336 338 339 338 338 338 339 340 340 341 342 343 343 344 345 345 346 345 346 347 347 348 349 349 350 349 349 349 348 349 351 350 348 347 346 345 345 344 342 341 340 341 341 339 339 339 338 338 336 334 332 331 331 330 331
347 346 347 348 347 346 346 346 347 348 347 347 345 343 343 343 344 344 344 345 345 345 345 345 344 342 342 340 338 336 336 339 339 336 337 338 338 339 339 339 340 341 342 343 345 346 347 347 348 348 347 348 348 348 348 349 349 349 349 349 349 349 349 348 348 347 346 346 345 344 341 340 341 340 339 338 338 338 339 337 335 334 332 331 332
349 348 347 347 346 345 344 345 347 347 346 344 343 342 343 343 344 344 344 344 345 345 344 345 344 343 342 341 341 338 336 339 337 335 337 336 337 338 337 336 337 339 340 341 341 343 344 345 346 347 347 347 346 346 346 346 346 348 349 349 348 348 348 348 349 348 347 346 346 346 345 342 341 340 339 337 337 337 338 338 337 336 335 334 333
348 347 346 346 344 343 344 345 345 343 343 343 343 344 343 343 343 344 344 344 345 344 342 343 343 342 341 343 344 341 340 340 336 335 337 334 335 335 332 330 330 334 337 337 337 338 339 341 343 345 346 346 346 346 345 345 345 346 348 349 349 349 348 347 347 348 348 349 347 346 346 344 343 341 340 338 337 336 337 337 338 338 337 336 336
347 345 344 342 341 340 342 343 341 341 342 344 345 344 343 342 343 344 344 345 345 342 341 341 342 342 342 343 342 341 344 342 336 336 335 332 333 330 325 324 324 327 330 330 331 331 332 333 336 339 341 343 344 344 345 344 344 345 346 347 348 349 349 349 348 347 347 349 349 347 346 345 345 344 342 341 339 337 336 336 337 338 337 338 338
345 342 340 339 338 339 340 340 340 341 341 342 343 342 340 341 342 343 343 343 343 342 341 340 341 342 342 343 343 343 346 341 338 339 334 332 332 327 324 326 325 326 326 327 327 327 327 329 330 332 333 337 340 342 343 343 344 344 344 345 345 346 347 347 348 348 348 348 349 348 347 346 346 347 345 343 342 339 337 336 336 337 337 338 338
341 339 337 337 338 339 339 339 339 340 340 340 341 340 339 339 339 339 339 339 340 340 340 339 339 341 342 342 342 342 341 339 340 341 336 332 330 327 326 326 326 326 326 326 326 325 326 327 328 329 330 331 334 337 340 341 342 343 343 343 343 344 344 344 346 346 347 348 350 349 347 346 346 347 347 346 344 342 339 337 336 336 336 336 338
338 337 336 338 339 339 339 339 338 338 339 339 340 339 338 338 338 338 336 336 338 339 339 339 339 340 340 340 340 340 340 340 339 340 339 335 329 326 327 326 324 324 324 324 325 324 324 325 326 328 330 331 332 333 335 337 340 341 342 342 342 343 343 343 343 343 344 346 349 350 349 348 346 346 347 348 347 345 343 341 338 336 336 336 336
336 337 337 338 339 339 339 338 337 337 338 338 338 338 337 337 338 338 337 338 340 339 339 339 338 339 338 338 339 339 340 340 338 338 339 337 333 329 328 324 321 321 322 322 323 324 323 324 325 328 329 331 332 332 333 334 335 337 339 339 341 341 341 342 342 342 342 344 346 349 349 349 348 347 348 348 347 346 346 344 341 339 338 338 337
335 337 338 338 338 338 338 336 335 336 336 336 336 337 337 337 337 337 337 338 339 339 338 338 337 338 338 337 339 339 338 339 338 337 336 337 338 335 331 327 324 320 319 320 320 320 322 324 325 325 326 327 328 330 331 332 333 334 335 336 338 339 339 340 341 341 341 341 344 346 349 349 349 349 349 349 348 348 348 347 344 342 341 340 339
336 337 337 337 337 338 337 334 334 335 335 333 334 336 336 336 336 336 336 337 338 337 337 338 337 337 337 337 337 337 337 337 337 337 335 335 335 334 332 330 330 326 319 319 319 318 320 322 322 322 323 323 324 326 327 328 330 331 332 334 335 337 338 339 340 340 341 341 341 342 344 346 347 349 350 349 350 350 349 349 348 346 344 343 342
335 335 337 338 338 338 335 333 333 335 335 334 334 335 336 336 336 336 335 336 337 337 337 337 337 335 335 336 336 336 336 335 335 336 336 335 333 332 331 330 330 328 321 319 319 318 319 320 320 321 320 320 321 321 321 322 324 326 328 330 333 336 338 339 340 340 340 341 341 340 341 342 344 347 349 350 350 350 350 349 349 349 348 347 346
334 333 335 338 338 336 334 333 333 334 334 334 334 334 335 335 335 336 336 336 336 337 337 337 336 334 333 334 335 335 334 332 331 333 334 334 333 331 330 329 330 327 322 321 320 318 319 319 318 319 318 318 319 319 319 319 320 321 323 325 329 332 335 337 339 340 341 341 341 340 340 341 342 344 347 351 352 352 351 350 349 350 349 349 348
335 333 335 338 337 335 334 332 332 332 333 333 333 333 334 334 334 335 336 335 336 336 337 337 336 333 332 333 334 334 333 330 328 329 330 330 330 331 329 329 329 327 324 322 321 319 319 319 318 317 317 318 318 319 319 319 319 319 320 321 324 327 330 332 335 337 339 340 340 340 340 340 341 342 345 349 351 352 351 350 351 350 349 349 349
334 333 335 337 336 334 333 332 331 331 331 332 332 332 333 333 334 334 334 335 334 335 335 336 336 334 332 332 333 334 334 331 328 328 328 326 326 328 329 328 327 326 324 323 322 321 321 319 318 317 317 318 318 318 319 319 319 319 319 320 321 322 325 328 331 332 335 337 338 340 339 338 339 341 343 345 348 349 350 351 351 351 351 349 348
334 334 336 337 335 334 333 332 332 331 331 332 332 332 333 333 333 334 334 334 334 334 334 335 336 335 333 332 333 334 334 331 329 328 328 325 320 323 328 330 330 328 325 323 322 321 321 320 319 317 317 318 318 318 318 318 318 318 318 319 319 320 322 324 326 329 331 333 335 338 339 338 336 337 340 343 344 346 347 350 351 351 352 351 349
334 334 335 335 335 334 333 333 333 332 331 332 332 332 332 332 333 334 334 334 335 335 334 334 335 335 335 333 333 333 333 332 330 328 328 324 319 318 323 327 331 330 329 328 325 322 321 320 320 319 317 318 318 318 318 318 318 318 317 317 318 319 320 321 323 325 328 331 333 335 337 338 337 336 336 338 342 344 344 346 349 351 351 351 350
334 333 333 334 333 331 333 333 333 332 332 333 333 333 333 333 333 333 333 333 333 334 335 335 335 335 335 334 333 333 333 333 331 329 329 324 318 318 319 323 327 329 331 332 328 323 322 321 321 320 317 318 318 318 318 318 318 318 318 317 317 318 319 321 321 323 325 328 331 333 335 336 337 337 336 336 337 341 343 343 345 347 350 351 351
332 332 332 332 331 332 333 333 333 332 333 333 332 332 332 332 333 333 332 332 332 332 333 334 335 335 335 335 334 334 334 333 332 330 329 325 319 318 319 320 323 325 328 329 326 322 321 321 320 320 319 319 319 318 318 318 318 319 319 318 317 318 318 320 320 321 323 325 328 330 332 334 335 336 335 335 335 337 341 342 343 344 347 349 350
331 332 332 333 333 333 333 333 332 333 333 332 332 332 331 331 331 331 331 331 331 331 332 333 334 335 336 335 334 335 334 334 333 330 329 327 323 319 319 320 322 323 324 325 326 323 321 321 320 319 319 320 320 320 319 318 318 319 319 319 318 317 318 319 320 321 322 324 326 328 330 332 334 335 335 335 335 335 337 340 343 344 345 347 349
331 333 334 334 334 334 333 333 334 334 332 332 332 331 332 331 330 330 331 331 331 332 332 332 333 334 336 335 335 335 335 334 333 331 330 328 325 320 319 320 320 322 323 324 325 324 321 321 321 320 320 322 322 322 321 319 318 319 319 319 318 318 318 319 320 320 321 322 325 327 329 331 333 335 335 336 336 336 335 337 340 342 344 346 347
333 334 335 335 334 334 334 334 334 332 331 331 331 331 331 330 329 330 330 330 331 332 332 332 332 333 334 335 335 334 335 335 333 332 331 328 325 323 322 321 320 321 322 323 324 323 322 321 321 321 321 322 323 323 322 321 320 320 319 319 318 319 319 320 320 321 321 321 323 326 329 331 333 334 336 337 337 337 336 336 336 339 342 344 346
333 334 334 334 334 334 334 334 332 331 331 331 331 330 329 329 329 329 330 330 331 332 333 333 332 332 334 335 336 335 335 335 334 333 331 329 327 326 326 324 322 321 321 322 323 323 322 321 321 321 321 322 323 323 322 322 321 321 320 319 318 319 319 320 320 320 320 321 323 326 328 330 332 334 335 337 337 338 337 336 335 336 338 341 343
332 333 333 333 333 333 333 333 332 331 332 332 331 330 329 329 329 330 330 330 330 331 332 333 332 332 333 332 332 332 333 335 335 334 333 330 329 328 328 326 324 322 321 321 322 322 322 322 322 322 322 322 323 324 323 322 322 321 320 319 319 319 319 319 320 320 321 321 323 326 329 331 332 334 335 336 337 338 338 338 337 336 336 338 340
331 332 332 333 333 333 333 332 331 331 332 331 330 330 329 329 330 330 329 328 329 330 331 332 332 331 332 331 330 330 331 333 334 334 333 332 331 329 329 327 326 325 324 322 321 322 322 322 322 322 322 323 324 324 324 322 321 321 320 319 319 319 319 319 320 320 321 322 323 325 329 331 332 334 336 337 337 339 339 339 338 337 337 337 338
330 332 332 333 333 333 333 333 332 331 331 330 330 330 329 329 329 329 328 327 329 330 331 330 330 330 330 331 329 329 330 331 332 332 332 332 331 330 329 329 327 327 326 325 323 323 323 322 322 322 323 324 324 325 323 322 321 320 319 319 319 319 319 319 320 320 321 322 322 323 325 329 332 334 336 338 339 339 340 340 340 339 338 337 338
331 332 333 334 334 334 333 333 332 330 330 330 330 330 329 328 328 328 327 328 328 329 329 328 327 329 329 328 327 326 327 328 328 328 329 330 330 330 329 329 328 327 326 326 325 324 324 323 323 323 324 324 324 324 322 321 321 320 319 319 319 319 319 319 319 320 321 321 322 322 323 326 329 332 333 335 338 339 339 340 340 340 339 338 339
332 334 334 334 334 333 332 331 330 330 329 331 331 330 329 327 327 327 327 328 328 328 329 327 326 326 326 325 324 323 324 325 326 327 328 329 329 329 328 328 328 327 327 326 325 325 324 323 323 324 324 324 324 323 321 320 320 320 319 319 319 319 319 319 319 320 320 321 321 322 322 323 325 327 329 331 334 337 339 340 340 340 340 339 339
333 335 335 333 332 331 330 329 330 330 331 332 331 330 328 327 327 328 328 328 328 328 329 328 325 323 323 323 324 324 325 326 327 327 328 329 329 328 328 328 327 327 327 326 326 324 324 323 324 324 324 324 323 322 320 320 319 319 319 319 319 318 318 319 319 320 320 321 321 322 322 323 324 326 328 330 332 334 337 338 340 340 341 340 340
335 335 334 332 330 330 330 331 331 332 333 332 332 331 330 328 327 327 326 328 328 328 328 328 326 325 325 326 326 327 328 328 328 328 328 328 328 328 328 328 328 328 327 326 325 324 324 324 324 324 324 323 322 321 320 319 318 318 318 318 318 319 319 319 320 320 320 321 322 322 322 323 325 327 329 331 333 334 335 337 338 340 341 341 341
335 336 334 332 331 331 331 331 332 333 333 333 333 332 331 329 326 326 327 327 328 328 327 327 327 327 326 325 325 325 326 328 328 328 327 326 327 328 329 328 328 327 327 326 325 324 324 324 324 324 324 322 321 320 319 318 318 318 318 318 318 318 319 319 320 320 320 321 322 323 323 323 326 329 332 333 334 335 336 337 337 339 340 341 341
335 336 334 332 332 331 332 332 332 333 333 334 333 331 331 330 327 326 326 327 328 328 327 327 327 326 324 323 323 323 323 325 327 327 326 325 326 327 328 327 327 328 327 326 326 325 324 324 324 324 323 321 320 319 318 318 318 318 317 317 318 318 319 320 320 320 320 321 322 322 323 323 324 328 332 334 336 336 337 338 337 337 338 340 341
336 335 334 333 332 332 332 332 332 333 333 334 333 332 330 329 328 326 326 327 328 327 327 326 325 324 323 323 324 324 323 324 326 327 327 325 325 325 326 326 326 327 328 327 327 326 326 325 324 323 322 320 320 318 318 318 317 317 317 317 317 318 319 319 320 320 320 320 321 322 322 323 323 325 328 332 335 337 337 338 338 338 338 339 341
335 335 334 333 333 332 332 332 333 333 332 333 333 333 331 330 329 328 327 327 328 328 327 326 325 325 325 324 325 325 325 325 326 326 326 325 325 325 325 324 325 325 326 326 326 327 326 325 325 323 321 320 319 318 317 317 317 317 317 317 318 318 318 319 319 319 319 320 321 322 323 323 323 324 326 329 333 336 337 338 339 339 339 339 340
335 335 334 334 334 332 331 332 332 332 332 332 333 333 333 332 330 329 328 327 328 328 327 326 326 325 325 325 326 327 326 326 326 326 326 325 326 326 325 324 324 324 325 326 326 326 325 324 324 323 321 320 319 317 316 316 317 317 317 317 317 317 318 318 318 318 319 319 320 321 322 322 322 323 325 325 327 331 335 338 339 340 340 340 340
335 335 334 334 333 332 331 332 331 331 331 331 332 333 334 334 333 331 328 328 328 328 326 326 326 325 325 325 326 326 325 326 326 325 326 327 327 327 326 325 325 325 325 326 327 326 323 322 321 321 321 320 319 317 316 316 317 317 317 317 317 317 318 318 318 319 319 320 320 321 322 322 322 323 324 324 327 331 335 338 339 341 341 341 341
334 335 334 333 333 331 331 332 332 331 332 332 333 334 334 333 333 330 328 328 328 327 326 326 325 325 325 325 324 324 323 323 323 325 326 327 327 327 326 325 324 323 323 324 325 325 323 321 321 321 321 321 320 318 316 316 317 317 317 317 317 317 318 318 319 319 320 320 321 321 322 322 323 323 324 324 327 332 336 339 341 342 342 342 342
335 335 334 333 331 331 331 332 332 333 332 333 333 333 332 331 331 329 329 328 327 326 326 326 325 324 325 325 323 322 321 321 323 325 326 326 326 325 324 324 323 322 323 323 323 322 322 322 321 321 321 322 321 319 317 316 317 317 317 317 317 317 318 319 319 320 320 321 321 322 323 323 323 324 324 324 326 329 334 339 341 343 343 343 343
335 335 334 333 332 332 332 332 333 333 333 333 331 330 329 329 329 329 329 328 327 327 326 325 324 324 325 323 321 321 321 322 324 325 326 326 325 324 322 322 322 322 322 322 322 322 321 321 320 320 321 320 320 319 318 317 317 317 317 317 317 318 318 319 319 320 321 322 322 322 323 323 323 324 325 326 327 330 334 337 341 343 344 344 344
335 335 335 334 333 333 332 333 333 332 332 330 328 328 328 328 329 329 328 327 327 326 325 324 324 325 323 321 321 321 321 323 325 326 326 325 323 323 322 322 321 320 321 320 320 320 319 318 318 319 319 319 318 317 317 317 317 316 316 317 317 318 318 319 319 320 322 323 323 323 323 324 324 324 325 328 332 335 336 338 340 343 345 345 345
Wind_Speed
14 13 13 13 12 12 11 11 10 11 10 8 8 7 7 7 5 5 6 8 11 12 13 13 12 11 12 11 8 8 9 10 10 9 10 11 13 13 14 16 16 16 17 22 28 28 25 26 25 23 23 23 23 24 24 24 24 23 22 22 22 21 21 21 21 21 21 21 20 20 19 19 18 18 17 16 16 15 15 14 14 13 13 12 12
15 15 15 15 14 13 12 12 12 13 12 10 9 8 8 7 7 7 9 10 12 14 13 13 12 11 11 11 11 10 10 10 9 8 8 8 10 12 13 15 17 17 18 20 25 29 27 27 27 25 25 24 24 24 24 25 25 25 24 23 22 22 22 22 22 22 22 21 21 20 20 20 20 19 18 17 17 16 16 15 15 14 14 13 13
17 17 17 16 15 14 13 13 14 14 13 11 10 9 8 8 9 9 11 12 14 15 13 12 12 11 10 11 12 12 11 10 10 9 9 8 8 9 12 14 17 19 20 20 22 27 29 28 27 27 26 26 25 25 25 25 25 25 25 24 23 22 22 23 23 23 23 22 21 21 21 21 21 20 20 19 18 18 17 16 16 15 14 14 14
18 18 18 17 16 15 14 14 14 13 13 12 11 11 10 10 11 11 13 14 15 13 11 12 12 10 10 11 12 13 12 10 10 10 9 9 8 10 11 13 15 18 21 21 22 26 30 30 30 28 27 27 27 26 26 26 26 26 25 25 25 24 23 23 23 23 23 24 23 22 22 22 22 22 21 20 19 19 18 18 17 16 15 15 15
19 19 18 17 16 15 14 14 13 12 12 12 12 11 12 11 11 12 13 13 13 11 10 10 10 10 9 10 11 12 12 10 9 9 9 10 10 11 13 14 14 16 19 22 24 26 28 30 30 30 29 28 28 28 28 27 26 26 26 27 26 25 25 24 24 24 23 23 24 24 23 24 23 23 23 22 21 20 19 19 18 18 17 17 16
19 19 18 17 16 15 14 13 11 10 10 10 10 9 10 10 10 11 11 10 10 10 10 10 9 9 10 10 10 10 10 10 10 10 10 11 12 13 15 15 16 16 17 19 22 25 27 28 30 31 31 29 27 28 29 28 27 26 26 27 27 27 26 26 25 25 25 24 24 24 24 24 24 24 24 24 23 22 21 20 20 19 19 18 17
18 18 18 17 15 13 12 11 9 9 9 9 9 9 9 9 9 9 8 8 8 9 9 10 10 10 11 10 10 10 10 10 11 13 13 13 14 15 16 17 17 17 17 18 19 20 22 25 27 29 31 29 26 27 29 28 28 27 27 27 28 29 28 28 27 27 26 26 25 25 25 25 25 25 25 25 25 24 23 22 21 21 20 19 19
18 18 17 15 13 11 10 9 8 9 9 9 8 8 8 7 6 6 6 6 7 8 9 9 10 10 11 12 12 11 10 10 11 12 13 14 16 17 18 18 18 18 19 20 20 19 19 21 22 25 29 31 30 29 29 29 30 29 29 28 28 29 29 29 29 28 28 27 27 26 26 26 26 26 26 27 27 26 25 24 23 22 21 21 20
19 18 14 11 11 10 8 7 8 9 9 9 9 8 8 7 6 5 6 6 7 9 10 10 10 11 12 12 12 12 12 11 10 11 12 13 14 16 17 18 19 19 19 20 20 20 20 20 21 22 24 29 33 33 31 31 32 31 30 30 30 29 29 30 30 30 30 29 28 28 27 27 27 27 27 28 28 28 27 26 25 24 23 23 22
18 14 9 9 10 9 6 6 8 9 9 10 9 9 8 8 8 6 7 9 9 10 11 12 12 12 13 12 12 12 11 11 11 10 10 11 11 12 14 16 17 18 19 19 20 20 20 21 22 23 23 24 28 31 32 32 32 31 30 31 32 31 30 30 31 31 32 31 30 30 29 29 29 28 28 28 28 29 29 28 27 26 25 24 23
14 9 7 8 6 5 4 4 6 8 10 11 10 10 9 9 10 10 10 11 11 11 12 13 13 13 13 13 13 11 10 10 8 9 11 11 10 11 13 14 14 15 16 17 18 19 19 20 22 23 24 24 24 26 30 32 32 33 33 33 34 33 31 31 31 31 32 32 32 32 31 31 31 30 30 29 29 30 30 29 28 28 27 26 25
9 9 8 6 3 2 2 3 4 6 8 10 10 10 8 9 10 11 12 11 12 12 12 12 14 14 13 13 12 10 10 7 6 11 14 12 10 13 14 14 14 14 13 13 14 16 17 19 20 21 23 23 23 24 25 29 32 35 35 33 34 34 32 32 31 31 31 31 32 33 33 33 33 32 32 31 31 30 31 30 30 29 28 27 26
6 8 8 5 3 1 2 3 4 5 7 7 7 5 5 7 9 11 11 11 12 12 12 12 12 11 11 13 11 10 10 5 7 14 14 12 12 13 15 14 14 14 13 12 10 12 13 15 17 19 21 21 23 24 23 26 29 32 34 35 36 35 33 32 31 31 31 31 32 33 34 35 35 35 34 34 33 32 32 32 32 31 30 29 28
7 9 7 5 4 3 4 4 5 5 5 4 3 2 3 6 8 10 9 11 13 12 11 9 8 8 8 9 8 10 9 3 9 14 12 12 12 11 13 13 13 12 12 12 11 12 12 12 13 15 16 16 18 20 20 22 23 28 34 38 39 37 35 34 32 32 32 33 33 33 34 35 36 36 37 36 36 35 35 34 34 33 32 31 30
8 7 6 5 5 5 6 5 5 4 3 3 2 2 3 4 6 8 8 10 11 9 8 4 6 8 6 3 3 7 6 3 12 13 9 12 12 11 13 13 13 12 10 11 12 12 12 12 13 13 14 14 15 16 17 18 18 22 28 33 36 37 36 36 35 33 33 34 35 35 34 35 36 37 38 38 38 38 37 36 36 35 34 33 32
8 8 7 6 6 6 5 5 3 2 2 2 2 2 2 3 4 5 6 8 8 6 5 4 5 6 3 2 1 2 1 3 12 9 6 12 11 12 14 14 14 12 11 11 11 12 13 13 14 13 14 14 15 16 17 17 17 18 21 25 30 32 34 35 36 36 35 35 35 36 36 36 36 37 38 39 39 39 39 38 38 37 36 35 34
10 9 8 6 5 5 5 4 4 3 2 2 2 2 1 2 2 2 3 5 5 4 3 5 6 4 1 1 1 1 1 4 8 4 6 10 9 11 14 15 16 13 13 13 12 13 13 14 14 14 15 15 15 17 17 18 18 19 20 22 24 27 29 30 33 36 37 37 38 38 38 37 36 37 39 39 40 40 40 40 39 39 38 37 36
10 8 7 6 6 6 5 4 4 4 3 3 3 3 2 1 1 0 0 1 3 3 3 5 5 3 1 1 0 1 3 5 4 2 6 7 7 11 14 16 18 14 15 16 15 16 15 15 15 14 14 14 15 16 17 18 18 19 20 21 22 24 25 26 28 31 33 36 39 39 40 40 38 38 39 40 40 41 41 41 40 40 40 39 38
9 8 7 7 8 8 6 4 4 3 4 4 5 4 4 3 2 2 0 1 2 4 5 6 3 2 3 3 2 1 3 4 2 2 4 4 8 13 14 18 18 15 17 19 19 19 18 16 15 14 14 14 15 15 16 17 18 19 20 21 21 21 21 23 25 28 30 33 36 37 39 41 41 40 40 41 41 41 41 41 41 41 40 40 40
8 8 8 9 10 9 6 4 3 4 4 5 4 4 4 3 3 2 2 1 2 3 5 5 3 2 3 3 2 2 1 2 2 2 2 3 8 11 15 21 19 16 18 19 20 19 18 18 16 15 15 14 15 15 16 17 18 19 20 20 21 21 22 23 25 27 29 31 33 36 37 38 40 41 42 42 42 42 42 42 42 41 41 40 40
8 9 9 9 9 7 4 3 3 4 4 4 4 4 3 2 2 2 1 1 1 2 3 3 2 2 3 3 2 2 1 3 3 2 2 2 4 5 12 20 18 17 18 18 19 19 18 17 16 16 16 15 15 15 16 17 18 19 20 20 21 22 23 25 27 28 29 30 32 33 35 35 36 39 42 43 42 42 42 42 42 42 42 41 40
9 9 9 8 8 6 4 2 3 3 3 3 3 2 1 1 0 0 1 1 1 2 2 2 1 2 3 2 2 2 1 2 3 2 2 3 3 4 9 12 12 15 18 18 18 19 17 17 18 18 18 18 18 17 17 18 19 20 20 20 21 22 24 25 27 28 29 30 32 32 34 35 35 37 41 43 42 43 43 43 42 42 42 42 42
8 8 9 8 8 7 4 2 3 3 3 3 3 2 2 1 1 2 2 2 2 3 2 2 1 0 1 2 2 1 0 1 2 3 3 4 3 4 7 9 10 13 17 18 17 17 16 17 19 19 19 20 20 20 21 20 20 20 21 21 21 22 23 25 27 28 29 30 31 32 33 34 36 38 40 40 41 43 44 44 43 41 40 41 42
9 8 8 8 8 7 3 2 2 2 1 1 2 2 2 1 1 2 3 3 3 4 4 3 2 1 1 2 2 2 2 2 2 3 3 4 3 3 6 7 7 10 16 17 16 16 13 15 18 18 19 22 22 23 23 23 23 21 21 21 22 23 24 25 26 27 29 30 30 31 31 32 34 37 39 39 40 40 42 44 44 42 41 39 40
10 9 8 9 9 7 4 3 1 1 1 1 1 1 1 2 2 3 3 4 4 4 5 4 3 2 2 3 4 4 4 4 4 4 5 5 5 4 5 5 4 9 14 13 13 15 12 13 18 17 19 22 23 24 25 26 26 25 23 23 22 23 25 25 26 27 28 29 30 30 31 31 33 35 38 39 40 40 40 41 43 44 43 42 41
11 10 10 10 9 6 5 4 3 3 3 2 2 2 1 2 3 3 4 4 5 5 5 5 4 4 4 5 6 6 6 6 7 7 6 7 7 5 4 5 6 8 9 8 10 11 11 15 18 17 19 23 24 25 26 27 28 28 27 26 25 23 24 26 27 27 28 28 29 30 30 31 32 34 37 39 41 41 41 41 41 42 43 43 42
12 11 11 11 9 7 6 6 5 4 4 3 3 2 2 3 4 5 5 5 6 6 6 6 7 7 8 7 7 8 8 9 9 9 8 8 8 7 4 3 4 5 5 5 7 8 11 16 18 17 19 23 25 25 26 28 28 29 30 29 29 27 25 26 27 28 29 29 29 30 30 31 31 32 35 38 41 42 43 42 42 43 43 43 43
13 13 13 11 9 8 8 7 6 5 4 4 4 4 4 5 6 6 7 7 7 8 8 9 9 10 10 10 10 10 10 11 11 11 10 9 8 8 6 4 3 3 3 4 4 5 9 13 15 17 20 24 26 27 27 29 29 30 31 31 32 31 29 28 27 28 29 30 31 31 31 32 33 33 33 35 38 41 43 43 43 44 44 45 45
14 14 13 12 11 10 10 9 8 6 6 6 6 6 7 7 7 7 7 7 8 9 10 11 12 12 13 13 13 13 12 13 13 13 11 10 10 8 8 7 5 3 2 3 3 4 8 12 12 16 23 26 27 28 29 30 31 31 31 32 32 33 32 31 29 29 29 30 31 32 32 33 34 35 35 34 35 38 41 42 43 44 45 46 45
14 14 13 12 12 11 11 10 9 8 7 8 8 8 8 8 8 8 9 9 9 10 11 13 13 13 14 15 15 15 15 15 15 15 14 13 12 11 9 9 9 8 6 4 4 5 9 14 14 18 25 28 29 30 31 31 32 32 32 33 33 34 34 33 32 30 29 29 31 32 33 34 35 36 37 36 35 36 38 40 41 42 44 46 46
14 14 13 13 13 12 11 10 9 9 9 10 9 9 9 10 10 10 10 10 11 12 12 13 14 15 16 16 17 18 17 17 17 16 16 15 15 13 12 11 12 13 12 7 4 6 10 14 19 24 26 28 30 32 33 33 34 34 33 34 35 35 35 35 34 33 31 30 30 31 33 33 34 36 37 37 36 36 36 38 40 41 43 45 46
14 14 14 14 13 12 11 11 10 10 11 11 11 11 11 11 11 11 11 11 13 14 14 14 15 16 18 18 19 19 19 19 20 19 18 17 16 15 13 14 14 15 16 12 6 10 19 21 23 26 27 29 32 33 34 36 36 36 35 35 35 36 36 36 36 35 34 33 31 30 31 32 33 34 36 37 37 37 37 37 38 40 42 44 45
15 16 15 15 14 12 11 11 10 10 11 11 11 12 12 12 12 12 13 14 15 16 16 16 16 17 19 20 20 20 20 21 21 20 19 18 17 17 17 17 19 18 18 16 11 12 22 25 23 25 28 29 32 34 36 37 38 38 37 37 37 36 35 36 36 37 36 35 34 32 31 32 32 33 34 36 37 37 38 38 38 39 41 43 44
16 16 16 15 13 12 11 11 10 10 11 11 12 12 13 14 14 14 14 15 16 16 16 17 17 17 18 19 20 20 20 22 22 21 22 20 18 21 22 21 24 23 19 19 17 13 18 25 24 26 29 29 31 35 37 37 39 39 38 38 38 37 36 36 36 38 38 36 35 33 32 31 32 33 34 35 36 37 38 38 39 40 41 42 44
17 17 16 15 13 12 11 11 11 12 13 13 13 13 14 15 16 15 13 13 14 15 16 17 17 17 17 18 18 18 18 20 22 23 24 23 22 24 25 24 26 26 22 22 22 17 18 23 24 24 27 29 32 35 36 37 38 38 37 38 39 38 37 36 37 38 38 36 34 33 33 32 32 33 33 34 35 36 37 38 38 40 41 42 43
17 17 16 16 15 14 13 13 13 14 14 15 14 15 16 16 15 14 12 11 12 13 15 15 15 14 14 15 16 16 17 19 22 23 24 25 26 25 26 27 27 28 28 27 25 23 21 21 23 25 26 28 32 35 36 37 38 37 37 37 37 38 39 38 37 37 36 35 35 34 34 32 31 32 32 34 34 35 36 37 37 38 40 41 43
18 17 17 18 17 16 16 15 14 15 15 15 15 15 15 15 14 13 12 11 12 12 13 14 13 12 12 14 15 15 16 18 19 21 22 24 25 26 27 28 28 29 31 29 27 27 25 23 24 27 27 28 31 34 35 35 36 38 38 38 37 36 37 37 36 36 35 35 36 36 34 32 31 30 31 32 33 34 35 36 36 36 38 40 42
18 18 18 18 18 18 17 16 16 15 15 15 15 15 14 14 13 12 12 12 12 12 13 13 13 13 13 14 14 15 16 18 18 19 21 22 23 25 26 27 28 28 29 28 27 27 26 24 24 26 27 27 28 31 34 34 33 35 37 39 38 35 34 35 37 37 36 35 36 37 35 34 32 31 31 31 31 32 34 34 35 35 36 38 41
18 18 18 18 18 17 15 15 15 16 16 16 15 14 13 13 12 12 12 12 13 13 14 14 14 14 14 14 15 15 16 18 20 20 21 21 22 23 24 25 26 26 26 27 27 26 25 24 23 24 25 26 26 29 33 33 31 32 33 33 35 35 35 35 36 38 38 37 37 38 37 36 34 33 32 33 32 31 32 33 33 34 34 36 39
19 19 18 17 17 15 14 13 14 15 16 15 15 15 14 13 13 13 13 13 13 14 15 16 16 14 14 15 16 18 19 19 20 20 20 20 21 22 23 23 24 24 24 25 25 24 23 22 21 22 23 25 26 28 30 29 26 28 29 30 32 35 36 36 36 36 38 38 38 38 37 36 34 32 31 31 32 32 32 33 33 33 33 34 36
21 20 18 18 17 15 14 14 14 15 16 16 16 16 15 14 14 14 14 14 15 16 16 17 17 17 16 17 18 19 20 20 19 18 18 18 20 22 23 23 23 23 23 23 23 22 21 20 19 20 19 21 24 26 26 25 24 27 31 32 33 35 35 36 38 36 34 35 35 35 35 33 32 31 30 31 32 31 32 33 34 34 34 34 35
23 21 20 20 18 16 15 15 16 18 18 18 17 17 17 16 15 15 15 16 16 16 17 18 18 18 16 17 19 20 20 20 19 18 18 18 19 21 23 23 22 23 23 22 22 22 20 18 18 18 16 18 23 24 25 28 29 29 31 30 31 35 34 30 33 35 32 29 29 31 32 30 28 29 30 30 31 31 31 33 34 35 35 35 35
25 23 23 22 20 18 18 18 19 21 21 20 18 17 18 17 17 16 16 18 18 17 18 17 16 15 14 15 17 19 19 19 17 17 18 18 19 20 21 20 20 21 21 22 22 22 20 18 18 18 17 18 23 25 26 31 31 28 30 30 30 33 30 22 21 27 29 25 24 28 33 32 29 29 30 30 30 30 31 33 34 35 35 35 35
26 25 25 24 22 21 21 21 22 23 22 21 19 18 19 19 19 18 19 20 20 18 17 16 14 12 13 14 16 17 18 17 16 17 18 19 19 19 20 19 18 18 19 20 21 21 21 19 18 20 21 21 23 24 26 30 31 30 32 32 30 30 30 25 21 26 32 31 27 28 34 35 30 27 30 30 29 29 31 32 34 34 34 34 34
28 27 28 27 24 23 23 24 24 23 22 21 20 21 21 21 21 22 22 22 21 20 17 15 13 12 13 14 14 15 16 15 15 16 18 19 19 19 20 19 19 19 18 19 20 21 22 22 21 23 25 25 24 26 29 31 33 33 32 32 32 31 31 30 29 34 39 37 30 27 31 35 31 26 29 30 28 29 31 32 34 34 34 33 32
30 30 30 29 26 25 25 25 24 24 23 22 22 22 23 24 24 24 24 22 21 20 18 15 14 13 13 13 13 15 15 15 15 16 17 18 19 19 20 20 20 21 21 21 21 21 22 22 22 25 28 29 28 30 33 34 33 34 33 33 35 35 35 37 39 41 44 41 35 27 25 32 32 26 29 33 30 29 31 32 34 34 33 33 32
33 32 31 29 27 26 26 26 26 25 24 23 23 24 25 25 25 25 24 22 21 20 19 17 16 15 13 13 13 15 15 16 16 17 18 19 18 19 20 20 21 22 22 23 24 24 23 22 23 26 29 31 33 34 35 36 36 37 37 37 40 40 41 41 39 40 42 41 37 27 21 28 31 26 28 32 28 28 31 31 33 34 33 33 32
34 32 30 28 26 26 27 28 28 27 26 25 23 23 24 24 24 23 22 21 20 20 20 19 17 15 13 12 13 14 16 17 17 16 16 17 16 16 18 19 21 23 24 25 25 25 24 23 26 29 32 34 36 36 36 36 38 41 40 38 40 40 36 32 29 32 35 35 33 29 24 27 31 27 28 30 26 26 29 30 31 32 32 32 31
35 33 31 28 27 27 28 28 27 26 25 23 21 21 21 20 19 20 20 20 19 20 20 20 18 15 13 12 13 14 16 17 16 14 14 13 13 14 17 19 22 24 26 26 25 25 25 27 31 33 34 35 35 36 38 37 39 42 37 33 36 37 30 20 17 23 31 31 29 29 26 26 29 27 26 28 27 27 28 28 30 31 31 31 31
35 33 32 30 28 28 28 25 22 21 21 19 16 16 17 16 17 18 19 19 19 20 21 20 18 15 12 12 13 14 15 15 14 12 12 12 13 15 17 19 20 22 24 24 26 29 31 33 34 33 33 33 33 35 38 36 37 38 35 32 36 37 30 21 17 21 27 29 30 28 24 23 27 25 22 21 22 26 29 29 28 30 30 30 30
34 32 31 29 28 26 23 19 16 15 16 15 13 13 14 15 16 17 18 18 19 21 20 19 17 15 13 12 12 13 14 13 12 11 12 13 15 15 16 16 16 18 21 23 26 31 33 34 33 32 32 33 33 34 34 33 34 37 36 36 38 37 33 30 27 20 16 19 25 26 22 21 24 24 19 13 10 16 25 28 28 29 30 30 31
Wind_Direction
246 251 257 257 257 255 251 249 250 257 268 280 284 276 268 269 278 293 307 327 341 341 333 329 329 329 328 325 315 305 303 303 300 291 282 273 265 260 255 252 249 247 245 236 231 230 228 224 223 224 225 225 224 224 223 222 222 222 223 223 224 224 223 223 223 222 220 219 218 219 222 223 224 227 227 227 229 229 228 228 229 232 235 238 243
249 254 258 259 259 256 252 250 250 254 266 280 288 281 274 275 281 299 309 316 328 331 325 324 326 329 327 325 324 318 309 306 305 298 291 285 275 270 263 257 252 248 247 241 235 233 231 229 226 225 225 225 226 226 226 226 225 224 224 225 227 228 228 227 227 226 225 223 222 221 223 224 226 229 230 230 231 232 232 232 233 235 237 239 242
250 254 256 258 257 256 254 254 255 260 270 279 284 280 275 276 279 296 307 309 318 324 322 320 323 328 325 322 323 321 315 304 298 296 294 295 291 284 274 261 254 250 249 247 241 237 233 232 232 230 229 228 227 227 227 228 228 226 225 227 228 230 231 232 231 231 230 229 227 226 226 226 228 230 232 232 231 233 234 235 237 238 239 240 242
249 250 253 254 252 254 255 256 263 269 274 278 281 280 278 278 278 289 299 304 311 317 318 315 319 325 323 322 322 322 322 311 294 289 291 294 298 294 284 277 265 252 249 247 241 238 236 233 234 234 233 231 230 229 229 229 230 229 228 229 229 231 233 234 234 233 233 233 233 232 230 230 231 232 233 233 233 234 236 237 238 239 240 242 244
248 249 250 252 251 254 258 261 268 271 271 274 277 278 279 280 280 287 296 303 309 317 321 318 322 325 323 323 321 321 324 319 303 293 290 291 296 295 291 291 283 262 255 253 246 242 241 238 236 235 234 234 234 233 231 230 231 232 232 232 232 232 234 236 237 237 236 236 236 236 236 235 235 234 234 234 234 235 236 238 239 240 242 243 244
248 249 248 248 250 257 264 269 274 271 268 271 276 280 284 287 288 292 301 309 317 325 327 327 329 326 327 325 316 313 312 307 303 295 288 288 290 292 291 292 289 278 269 264 258 251 247 244 241 238 237 237 237 237 236 233 231 233 235 235 235 235 235 237 239 239 239 238 239 239 239 239 238 238 237 236 236 236 238 238 239 241 242 243 243
248 248 247 244 248 260 271 279 282 277 277 281 286 291 296 300 300 302 311 320 325 332 332 330 332 330 331 327 318 313 304 295 291 287 285 286 285 285 287 289 288 285 284 282 278 271 261 255 251 247 246 244 241 241 243 240 235 235 237 238 238 238 237 238 239 240 241 241 241 241 241 241 241 241 241 239 239 238 239 239 240 241 241 242 242
247 246 244 244 253 265 276 288 292 293 294 296 296 299 306 309 311 311 317 323 326 333 335 328 326 329 331 330 327 324 315 306 296 289 288 286 284 284 285 287 287 286 288 291 294 293 286 279 271 261 254 251 247 243 242 243 240 237 238 239 238 240 239 239 240 241 242 242 242 242 242 243 243 243 243 243 242 242 241 241 241 241 242 242 243
242 239 236 247 268 280 291 296 297 302 301 298 297 300 305 308 312 306 301 311 320 325 330 327 321 324 329 331 335 334 327 321 311 303 300 295 293 291 289 289 288 287 287 289 292 295 296 294 287 276 264 256 253 249 244 242 241 239 239 240 239 239 240 239 241 242 243 243 243 243 243 244 245 245 245 245 245 245 244 243 242 243 243 243 245
233 231 240 268 279 286 297 296 297 301 295 292 295 295 296 301 304 300 294 299 309 317 322 322 319 321 326 332 339 337 331 327 323 322 320 315 312 308 305 303 298 295 291 289 290 289 288 286 284 283 279 268 260 255 249 246 246 246 244 243 241 239 239 239 240 242 244 244 245 245 245 245 246 246 246 246 246 247 247 246 245 245 245 245 246
225 234 259 271 268 278 291 288 294 296 292 291 291 290 294 300 300 301 302 299 301 308 314 316 314 316 322 332 341 343 342 341 345 355 353 344 341 340 338 333 326 317 308 302 296 290 285 281 279 279 279 275 269 263 255 251 250 249 248 247 244 241 240 241 240 242 243 245 246 247 247 247 247 247 247 247 248 248 249 248 248 247 247 247 247
243 246 246 239 230 271 288 289 299 302 304 300 298 297 296 300 299 300 301 297 297 303 312 313 309 312 322 335 346 355 354 4 26 9 4 4 4 4 5 3 360 353 342 330 311 298 294 291 286 281 280 279 278 273 263 255 250 247 247 249 249 246 244 243 242 243 243 244 246 247 248 248 248 248 248 249 250 250 250 250 250 249 249 249 248
230 209 208 203 192 222 276 298 303 310 317 313 317 312 287 291 295 297 297 296 300 307 315 311 306 314 328 337 348 1 3 28 23 6 14 25 22 14 12 13 13 12 9 3 342 323 314 305 298 291 288 287 286 283 275 263 254 247 245 247 249 249 249 248 246 246 245 244 245 247 248 249 249 249 249 250 250 251 251 252 252 251 251 251 250
185 179 186 189 191 216 245 269 284 302 311 309 327 318 280 290 294 297 300 300 301 311 319 308 304 317 325 331 342 356 9 50 3 4 26 28 24 21 13 16 16 11 11 13 8 356 347 333 321 311 304 299 295 293 287 275 264 255 248 246 248 249 249 250 250 249 248 247 246 246 246 248 249 250 250 250 251 251 252 253 254 253 252 252 252
181 181 189 193 208 226 232 245 263 284 287 277 277 254 276 286 286 294 300 302 302 318 337 321 310 321 327 330 337 350 360 8 351 2 28 19 24 27 18 21 17 9 7 9 10 3 357 352 341 332 326 318 308 303 298 290 280 270 261 254 253 253 252 250 250 251 250 249 249 248 248 248 249 250 250 250 250 251 252 253 254 255 254 254 254
183 186 192 199 211 219 221 227 234 244 244 243 234 226 254 271 281 288 287 295 303 323 354 7 343 340 340 324 314 356 344 321 339 348 13 17 28 25 18 19 14 13 13 11 11 1 353 352 347 339 334 328 320 312 305 300 293 285 277 268 264 262 258 254 252 251 251 250 250 250 249 249 248 249 251 251 250 251 251 252 253 254 255 254 255
185 185 187 192 199 198 195 197 200 203 213 229 244 252 276 287 297 304 282 287 295 309 342 4 359 358 339 303 336 354 245 310 331 317 342 8 25 15 12 11 9 15 17 13 12 5 357 353 351 345 338 332 326 319 312 307 301 293 287 280 275 268 264 263 260 255 253 251 250 250 250 249 248 248 251 251 251 251 251 251 252 253 254 254 255
180 180 182 187 186 181 177 184 195 194 201 217 224 229 236 242 235 358 352 298 300 318 347 356 3 26 32 46 47 287 273 317 343 295 325 355 11 2 5 4 4 12 13 11 8 6 5 359 356 354 348 340 333 327 320 314 305 299 293 289 285 278 272 271 269 264 259 255 252 250 251 251 251 250 250 251 252 252 251 251 251 251 252 253 254
184 188 189 184 177 176 179 189 200 197 203 209 207 206 208 207 196 190 198 337 336 343 349 350 11 67 30 18 30 360 272 297 318 299 319 335 340 348 357 357 2 10 9 7 4 5 7 6 4 2 360 354 346 339 332 324 315 307 300 295 293 288 283 278 274 271 268 262 255 252 252 254 253 251 249 250 251 251 251 251 251 251 251 252 253
196 194 185 178 176 177 181 198 212 205 199 201 204 203 203 209 208 215 241 301 346 342 339 344 1 42 35 37 41 26 300 240 224 287 304 307 326 340 346 348 357 11 9 5 3 4 6 9 10 8 6 2 355 348 341 335 327 318 310 303 297 291 288 283 279 277 275 271 262 256 254 254 254 252 249 248 250 251 251 251 251 251 251 251 252
185 183 179 177 178 178 179 205 209 192 194 203 206 205 206 213 217 233 263 322 346 343 345 352 10 29 37 40 33 23 14 184 199 267 262 266 309 326 335 342 351 1 6 7 5 7 11 14 16 12 9 4 358 352 344 339 334 328 321 314 306 297 291 287 283 280 278 276 271 263 258 257 256 253 250 249 249 249 250 251 251 251 251 251 252
173 179 184 182 181 181 179 182 172 167 170 173 175 177 182 158 96 360 10 5 336 351 358 351 11 30 30 17 18 37 98 181 214 273 260 237 260 291 317 331 332 337 353 1 4 10 15 19 19 17 16 12 7 360 351 342 335 330 325 320 314 306 298 291 286 282 279 277 274 270 265 262 260 256 252 250 249 248 249 250 251 252 252 252 252
171 180 189 186 180 180 175 160 151 148 141 133 123 102 88 82 48 22 15 355 331 337 337 305 269 43 18 351 358 20 122 210 251 275 256 235 246 279 298 313 304 307 334 349 357 5 12 17 19 19 19 14 10 4 356 348 340 331 325 320 314 310 303 297 291 286 283 280 276 273 269 265 262 260 256 252 250 249 249 249 250 251 251 252 252
178 188 195 186 180 183 185 182 157 149 153 122 86 65 53 30 7 350 347 346 332 331 332 308 241 221 299 308 311 318 291 279 292 285 274 268 272 272 285 309 303 296 322 340 348 353 2 11 12 15 15 10 7 3 357 352 347 339 329 320 313 307 303 300 296 291 288 285 281 278 273 267 262 261 259 255 251 249 249 250 250 249 249 249 251
188 199 202 189 187 197 210 220 224 272 266 284 333 334 333 325 324 318 325 337 332 328 332 317 265 247 286 289 278 281 277 276 285 287 293 293 286 275 284 298 283 290 314 330 337 342 348 354 360 6 7 5 2 359 357 355 352 348 340 328 317 308 300 297 296 294 291 288 285 281 277 272 266 262 261 257 253 249 250 252 250 249 248 248 249
205 207 202 192 192 205 224 240 264 304 302 298 304 307 310 304 303 307 316 327 325 319 319 307 278 258 264 273 268 266 263 264 271 275 283 290 284 274 286 300 280 276 299 316 320 329 333 336 346 357 359 359 358 356 355 355 354 352 346 336 325 316 305 297 293 292 291 289 287 284 279 276 272 267 263 260 257 254 252 252 250 249 248 248 248
214 208 199 196 199 214 234 247 260 284 295 297 299 291 292 296 293 295 302 307 305 302 302 295 280 267 265 269 267 261 258 259 265 269 273 282 284 278 279 302 297 280 287 302 301 306 318 327 336 346 351 351 352 352 351 350 351 349 346 340 332 325 316 306 296 290 288 287 286 284 280 278 277 275 268 263 260 258 256 254 252 250 249 249 247
210 205 202 206 215 224 231 236 242 262 278 283 288 283 284 293 293 291 291 291 288 287 287 283 278 270 265 266 266 263 260 259 261 263 267 274 274 275 274 262 267 300 309 302 290 299 317 325 330 334 340 344 345 347 345 344 346 345 342 339 334 328 323 317 307 296 288 283 282 282 280 278 278 278 275 269 263 260 258 256 254 252 250 249 247
211 211 214 218 220 219 220 224 230 243 257 262 269 272 275 282 288 292 294 293 287 282 277 274 273 268 262 262 264 264 260 258 259 259 260 264 264 267 274 263 247 247 291 303 282 273 308 318 318 321 330 338 341 340 339 339 340 340 337 335 332 328 324 321 315 305 294 284 279 278 278 277 277 277 276 274 269 264 260 258 255 253 252 250 248
216 217 216 213 210 211 216 222 226 234 246 254 261 265 266 270 278 285 289 289 286 281 274 269 269 267 263 261 261 262 260 256 257 258 255 257 260 264 271 268 256 244 236 270 285 259 288 308 308 312 325 333 335 335 335 336 336 334 332 330 329 327 324 321 317 312 303 291 280 275 275 275 275 274 273 273 272 268 264 260 257 255 253 251 250
215 212 209 205 206 213 221 225 227 235 246 253 258 261 261 266 274 278 280 282 284 283 279 274 271 269 266 261 260 260 260 258 256 255 253 253 257 262 269 267 262 258 250 247 274 267 272 295 304 311 321 326 328 330 331 333 333 330 327 325 325 325 323 319 317 315 310 300 288 278 275 275 274 272 271 270 270 269 266 263 259 257 254 252 250
209 208 210 212 214 219 225 230 234 243 252 253 252 255 259 265 271 273 275 281 285 286 285 281 276 272 268 264 262 262 263 261 257 253 250 251 253 258 266 270 267 266 258 246 247 275 280 288 299 308 318 320 320 323 325 326 328 326 323 322 321 321 319 316 315 314 311 306 298 286 277 275 274 271 270 269 268 267 266 263 260 258 256 253 251
207 211 217 220 222 227 232 239 247 254 257 255 252 256 263 268 272 276 281 286 288 287 285 283 281 277 273 268 266 267 268 263 257 256 255 249 250 258 265 269 268 266 261 253 249 272 285 290 296 305 313 315 315 318 320 319 321 322 321 320 318 316 315 313 312 311 310 307 301 293 284 278 275 272 270 269 268 266 264 263 261 259 257 255 252
213 217 223 225 229 236 241 249 255 255 255 255 257 263 269 273 278 284 289 289 289 288 285 285 286 285 280 276 273 273 273 268 262 264 262 252 254 265 269 267 266 265 263 259 257 263 280 288 292 300 307 308 308 313 316 314 315 316 316 316 316 314 311 311 309 308 309 307 302 296 288 282 278 275 271 268 268 266 263 261 260 259 258 256 254
217 219 225 231 236 242 244 247 248 249 253 257 260 265 269 276 283 287 288 285 285 287 287 288 290 289 284 279 278 279 279 274 270 270 266 261 264 270 270 268 263 263 264 261 260 262 271 283 288 293 300 303 304 307 311 311 311 312 311 312 312 311 310 309 307 305 306 307 305 300 294 287 282 278 273 269 267 265 263 261 259 258 258 256 255
218 219 227 234 239 242 241 241 243 248 254 256 259 265 271 279 283 281 279 280 283 287 288 289 290 288 284 280 281 284 284 280 277 275 271 269 271 271 272 270 264 263 266 262 261 265 268 277 284 287 293 299 301 304 307 308 308 309 309 308 308 308 308 307 306 304 305 304 302 299 295 290 285 280 275 270 267 265 263 261 258 257 256 255 254
219 222 231 236 240 243 243 243 246 251 256 259 264 269 273 275 275 274 278 284 288 288 286 284 284 282 281 280 283 287 287 283 280 279 276 275 276 276 277 275 269 268 268 264 264 268 266 269 280 287 292 296 298 302 306 306 307 309 309 308 307 306 306 306 304 303 302 301 299 298 295 291 287 283 278 272 268 266 264 261 259 257 255 254 253
220 226 234 239 243 246 248 248 248 252 256 262 268 269 267 267 268 274 282 287 289 287 281 277 277 277 277 278 282 285 285 282 281 281 280 280 280 281 281 280 276 273 270 268 269 270 267 269 277 285 291 294 296 300 305 306 305 306 307 307 307 306 305 304 302 302 301 299 298 298 295 291 286 282 279 276 271 267 265 261 259 256 253 252 250
223 230 237 242 246 246 245 246 249 253 256 260 264 262 260 265 271 276 280 282 283 282 279 276 274 273 273 274 277 279 281 283 284 284 283 282 282 283 283 283 281 276 272 272 273 270 268 270 276 282 289 293 293 295 302 306 303 302 304 305 305 306 305 302 300 301 301 299 297 297 296 293 288 281 276 274 272 268 265 262 258 255 252 250 248
225 232 237 240 239 236 235 239 244 249 253 256 256 255 259 266 269 270 271 272 277 278 278 277 275 270 268 270 273 275 279 284 287 288 286 283 283 283 285 285 282 278 275 274 274 271 269 270 275 281 287 292 294 296 301 304 302 302 306 304 301 302 303 301 298 298 298 297 296 296 296 295 291 284 277 273 270 267 264 261 258 254 251 248 247
229 232 236 234 230 228 229 234 242 249 252 254 254 255 262 266 264 264 265 268 272 274 274 274 274 274 275 279 281 281 280 281 286 289 287 285 282 281 284 286 283 279 276 273 271 268 268 270 274 279 284 288 291 295 298 301 300 302 305 303 298 298 300 298 296 296 296 295 292 291 293 294 291 285 278 273 270 268 264 261 257 254 250 247 246
233 235 236 232 228 229 234 238 246 251 252 253 256 258 262 265 265 263 264 268 270 270 271 272 274 278 284 288 290 289 284 281 282 285 287 288 284 281 283 284 280 277 273 269 267 265 266 267 271 277 281 283 287 292 296 300 301 302 302 300 297 298 299 296 294 296 296 293 289 286 288 291 289 284 278 271 269 266 263 260 257 253 249 246 245
235 237 237 233 231 236 240 244 248 250 250 251 255 258 260 263 265 263 264 268 269 268 269 271 273 279 286 289 290 290 287 282 279 281 286 289 290 288 286 282 276 272 268 265 265 266 265 264 268 275 277 278 286 293 297 300 301 301 300 299 297 297 297 294 293 297 297 293 287 285 285 286 285 282 278 273 269 265 260 258 257 253 249 246 245
235 236 234 232 236 240 242 245 249 250 252 254 255 258 259 260 261 262 264 268 269 268 267 267 271 280 288 290 289 288 286 283 279 280 282 286 290 292 288 281 276 272 269 268 269 270 268 264 267 274 277 279 286 293 297 299 302 302 300 298 295 293 291 289 287 289 291 291 286 281 281 282 280 277 275 271 268 266 263 259 257 254 250 247 244
233 233 232 233 238 242 244 248 252 254 257 260 261 261 260 259 259 260 262 265 268 267 264 261 268 283 290 289 287 285 284 282 278 278 279 281 287 289 285 282 280 279 279 278 277 276 273 269 267 272 279 284 286 292 298 300 301 300 299 296 294 292 289 286 284 284 287 287 281 275 275 276 275 270 269 269 268 266 265 261 258 254 251 248 243
232 232 231 234 240 244 248 251 254 257 261 264 266 266 263 262 261 260 260 263 265 264 258 258 270 284 287 285 284 284 283 281 278 276 278 281 283 284 282 282 284 287 289 286 282 281 279 275 271 273 282 287 286 290 298 301 298 296 295 294 294 293 289 286 285 283 283 282 274 269 271 271 268 264 263 266 267 266 264 262 258 254 251 248 243
232 233 234 237 243 246 250 254 256 259 264 267 270 270 268 267 264 261 259 259 259 257 254 258 271 282 282 277 280 284 284 284 282 281 282 282 281 280 280 283 288 291 292 289 287 288 287 283 279 280 286 290 289 290 295 300 302 299 297 296 295 293 290 289 287 282 280 277 268 257 258 266 263 257 258 262 264 264 263 261 258 254 251 249 245
233 235 236 239 243 247 251 254 256 260 266 271 273 272 271 271 268 261 255 253 254 253 253 261 273 279 277 274 279 285 288 289 288 287 286 281 278 279 283 289 294 294 294 294 294 294 293 291 291 292 294 295 293 291 295 303 307 306 303 299 296 295 292 289 288 282 278 275 263 246 244 259 258 250 253 258 258 260 262 260 255 252 250 248 246
233 234 235 238 243 248 251 253 257 263 267 271 272 270 269 270 264 255 249 248 250 252 256 264 273 275 274 277 285 290 290 291 289 287 283 279 280 287 293 297 297 296 298 301 300 300 300 299 299 298 298 297 294 294 297 304 308 308 304 298 296 298 295 289 289 284 278 275 262 242 235 247 250 245 249 255 255 256 259 258 253 250 249 247 244
232 233 236 239 243 245 249 256 262 266 267 267 267 266 266 263 255 248 246 248 251 254 258 266 272 276 280 285 290 289 286 286 285 280 278 282 291 298 300 301 300 299 303 307 307 306 306 306 306 306 306 305 302 301 302 304 308 309 305 297 296 299 296 289 288 285 280 274 261 240 228 237 243 240 241 250 254 252 252 253 251 247 246 246 243
233 235 235 238 242 245 251 259 262 264 267 266 261 259 261 258 251 247 248 251 253 255 261 269 274 278 286 291 290 285 281 283 281 277 282 292 300 305 304 303 304 305 308 311 310 309 308 309 312 312 312 312 310 309 310 310 313 315 310 303 301 300 296 291 288 283 278 272 258 235 218 227 235 231 229 234 248 250 246 247 246 242 241 241 239